Location: Foulognes
(49.1413°N, 0.8183°W)
Time: 12:24:48
(UTC+00:00)

Lacrosse 5 - Pass Details

Date: 21 October 2019
Orbit: 715 x 724 km, 57.0° (Epoch: 27 October)

Event Time Altitude Azimuth Distance (km) Brightness Sun altitude
Rises 18:15:36 0° 304° (NW) 3,125 6.1 -12.6°
Reaches altitude 10° 18:17:59 10° 303° (WNW) 2,202 5.3 -13.0°
Maximum altitude 18:23:03 79° 218° (SW) 732 1.9 -13.9°
Enters shadow 18:27:30 13° 132° (SE) 1,967 3.7 -14.6°
